Regional Weather Roundup
Issued by NWS

Home | Current Version | Previous Version | Graphics & Text | Print | Product List | Glossary On
Versions: 1 2 3 4 5 6 7 8 9 10 11 12 13 14 15 16 17 18 19 20 21 22 23 24 25 26 27 28 29 30 31 32 33 34 35 36 37 38 39 40 41 42 43 44 45 46 47 48 49 50
000
ASUS43 KLSX 261859
RWRMO

WEATHER SUMMARY FOR MISSOURI
NATIONAL WEATHER SERVICE SPRINGFIELD MO
100 PM CST WED NOV 26 2014

NOTE: "FAIR" INDICATES FEW OR NO CLOUDS BELOW 12,000 FEET WITH NO
       SIGNIFICANT WEATHER AND/OR OBSTRUCTIONS TO VISIBILITY.
       CURRENT SKY AND/OR WEATHER CONDITIONS ARE NOT AVAILABLE FOR
       CHILLICOTHE AND FARMINGTON.

MOZ001>031-035>038-043-044-053-054-262000-
...NORTHERN AND WESTERN MISSOURI...

CITY           SKY/WX    TMP DP  RH WIND       PRES   REMARKS
KANSAS CTY INT CLOUDY    38  30  73 NW16G30   30.02R WCI  29
KANSAS C DTWN  CLOUDY    41  30  65 NW14G24   30.02R
LEE`S SUMMIT   CLOUDY    41  30  65 NW22G30   30.01R
ST JOSEPH      CLOUDY    36  31  82 NW23G36   30.03R WCI  24
CHILLICOTHE      N/A     39  33  79 NW10G20   29.95R
KIRKSVILLE     FOG       33  33 100 SE6       29.91S VSB 3/4 WCI  28

$$
MOZ066>068-077>081-088>096-101>105-262000-
...SOUTHWEST MISSOURI...

CITY           SKY/WX    TMP DP  RH WIND       PRES   REMARKS
SPRINGFIELD    CLOUDY    45  30  55 NW15G23   29.99S
JOPLIN         CLOUDY    47  25  42 NW21G32   30.07R

$$
MOZ032>034-039>042-045>050-055>058-069>072-262000-
...CENTRAL MISSOURI...

CITY           SKY/WX    TMP DP  RH WIND       PRES   REMARKS
COLUMBIA       CLOUDY    40  36  86 W5        29.94S
JEFFERSON CITY CLOUDY    41  36  82 SW5       29.95F
ROLLA          CLOUDY    34  32  92 W9        29.93S WCI  27
SEDALIA        CLOUDY    42  32  67 NW16G26   29.97R
WARRENSBURG    CLOUDY    41  32  70 W14       29.99R
OSAGE BEACH    CLOUDY    41  36  81 W5        29.96S

$$
MOZ051-052-059>065-262000-
...EAST CENTRAL MISSOURI...

CITY           SKY/WX    TMP DP  RH WIND       PRES   REMARKS
ST LOUIS INTL  LGT SNOW  35  31  85 SE9       29.98S VSB 1   WCI  28
SPIRIT OF STL  SNOW      33  31  92 CALM      29.97F VSB 1/2
ST CHARLES     SNOW      32  32 100 E6        29.98S VSB 1/2 WCI  26

$$
MOZ072>076-082>087-097>100-106>115-262000-
...SOUTH CENTRAL AND SOUTHEAST MISSOURI...

CITY           SKY/WX    TMP DP  RH WIND       PRES   REMARKS
CAPE GIRARDEAU CLOUDY    40  33  76 SE14      29.99F
FARMINGTON     CLOUDY    34  30  86 SE5       29.96S VSB 1/2 WCI  30
POPLAR BLUFF   LGT RAIN  39  34  82 VRB5      29.97F
WEST PLAINS    PTSUNNY   41  35  79 W9G18     29.96R

$$



USA.gov is the U.S. government's official web portal to all federal, state and local government web resources and services.